Flag for U.S.A. Weather past 2 weeks in Fort Worth, Texas, U.S.A.

Now
75 °F

Passing clouds.


Feels Like: 77 °F
Forecast: 67 / 81 °F
Wind: 16 mph from South

Location: Meacham International Airport

Current Time: Apr 1, 2015 at 1:29:13 PM

Latest Report: Apr 1, 2015 at 12:53 PM


Visibility: 8 mi

Pressure: 29.85 "Hg

Humidity: 71%

Dew point: 65 °F

Location of Fort WorthLocation

Historic Weather in Fort Worth — Graph

°F

Fort Worth temperature yesterday

Maximum temperature yesterday: 84 °F (at 2:53 PM)
Minimum temperature yesterday: 64 °F (at 5:53 AM)
Average temperature yesterday: 74 °F

Past Weeks' High & Low Weather Summary

 TemperatureHumidityPressure
High87 °F (Mar 24, 4:53 PM)97% (Mar 19, 8:53 AM)30.20 "Hg (Mar 19, 8:53 AM)
Low46 °F (Mar 27, 4:53 AM)26% (Mar 26, 5:53 PM)29.72 "Hg (Mar 25, 10:53 PM)
Average65 °F70%30.00 "Hg
* Reported Mar 17 11:53 AM — Apr 1 11:57 AM, Fort Worth, Weather by CustomWeather, © 2015

Note: Actual official high and low records may vary slightly from our data, if they occured in-between our weather recording intervals... More about our weather records

Advertising

Fort Worth weather history for previous 24 hours

 ConditionsComfort  
Time TempWeatherWind HumidityBarometerVisibility
11:57 AM
Wed, Apr 1
75 °FCloudy.12 mph71%29.89 "Hg7 mi
11:53 AM75 °FPartly sunny.10 mph71%29.87 "Hg7 mi
11:00 AM72 °FPartly sunny.14 mph81%29.90 "Hg5 mi
10:53 AM72 °FScattered clouds.15 mph81%29.88 "Hg5 mi
9:53 AM70 °FScattered clouds.8 mph81%29.87 "Hg5 mi
8:53 AM69 °FPartly sunny.8 mph84%29.87 "Hg5 mi
7:53 AM66 °FFog.5 mph90%29.88 "Hg5 mi
6:53 AM67 °FThunderstorms. Partly cloudy.10 mph85%29.87 "Hg7 mi
5:53 AM67 °FPassing clouds.7 mph85%29.84 "Hg8 mi
4:53 AM67 °FClear.8 mph81%29.85 "Hg9 mi
3:53 AM68 °FClear.8 mph78%29.85 "Hg10 mi
2:53 AM69 °FClear.10 mph76%29.87 "Hg10 mi
1:53 AM71 °FClear.12 mph71%29.86 "Hg10 mi
12:53 AM72 °FClear.9 mph68%29.86 "Hg10 mi
11:53 PM
Tue, Mar 31
72 °FClear.9 mph68%29.87 "Hg10 mi
10:53 PM72 °FClear.13 mph66%29.86 "Hg10 mi
9:53 PM73 °FClear.15 mph64%29.85 "Hg10 mi
8:53 PM76 °FClear.17 mph58%29.85 "Hg10 mi
7:53 PM78 °FSunny.15 mph54%29.84 "Hg10 mi
6:53 PM80 °FSunny.14 mph52%29.83 "Hg10 mi
5:53 PM82 °FSunny.15 mph53%29.83 "Hg10 mi
4:53 PM84 °FPassing clouds.13 mph51%29.83 "Hg10 mi
3:53 PM84 °FSunny.15 mph51%29.86 "Hg10 mi
2:53 PM84 °FSunny.15 mph53%29.88 "Hg10 mi
1:53 PM82 °FSunny.12 mph56%29.92 "Hg9 mi
Weather by CustomWeather, © 2015

See weather overviewHow to use our weather pages